Terminal Aerodrome Forecast
Issued by NWS

Home | Current Version | Previous Version | Graphics & Text | Print | Product List | Glossary On
Versions: 1 2 3 4 5 6 7 8 9 10 11 12 13 14 15 16 17 18 19 20 21
000
FTUS43 KABR 042145 AAB
TAFATY
TAF AMD
KATY 042145Z 0422/0518 33007KT P6SM SCT018
     FM050000 17008KT P6SM SCT250
     FM051600 21010KT 5SM -SN OVC015=

USA.gov is the U.S. government's official web portal to all federal, state and local government web resources and services.